,

(GMT )
Prerov

Weather History for LKPO - February, 2013

Change the Weather History Date:

Wednesday, February 27, 2013

  Actual Average Record
Temperature  
Mean Temperature 38 °F -  
Max Temperature 41 °F - - ()
Min Temperature 33 °F - - ()
Degree Days  
Heating Degree Days 27    
Moisture  
Dew Point 32 °F    
Average Humidity 79    
Maximum Humidity 87    
Minimum Humidity 70    
Precipitation  
Precipitation 0.00 in - - ()
Sea Level Pressure  
Sea Level Pressure 30.30 in    
Wind  
Wind Speed 11 mph ()    
Max Wind Speed 21 mph    
Max Gust Speed 30 mph    
Visibility 5.9 miles    
Events      
T = Trace of Precipitation, MM = Missing Value Source: Averaged Metar Reports

Daily Weather History Graph

Daily Weather History Graph

Search for Another Location

Airport or City:

Trip Planner

Search our weather history database for the weather conditions in past years. The results will help you decide how hot, cold, wet, or windy it might be!

Date:

Astronomy

Feb. 27, 2013 Rise Set
Actual Time 6:36 AM CET 5:30 PM CET
Civil Twilight 6:04 AM CET 6:02 PM CET
Nautical Twilight 5:27 AM CET 6:39 PM CET
Astronomical Twilight 4:50 AM CET 7:16 PM CET
Moon 7:48 PM CET (2/27) 6:49 AM CET (2/27)
Length of Visible Light 11h 57m
Length of Day
10h 53m
Full, 97% of the Moon is Illuminated
Feb 27
Full
Mar 4
Last Quarter
Mar 11
New
Mar 19
First Quarter
Mar 27
Full

Hourly Weather History & Observations

Time (CET) Temp. Windchill Dew Point Humidity Pressure Visibility Wind Dir Wind Speed Gust Speed Precip Events Conditions
12:00 AM 37.4 °F 30.3 °F 32.0 °F 81% 30.27 in 6.2 mi NE 10.4 mph - N/A   Overcast
1:00 AM 37.4 °F 30.3 °F 32.0 °F 81% 30.27 in 6.2 mi NE 10.4 mph - N/A   Overcast
2:00 AM 35.6 °F 27.5 °F 32.0 °F 87% 30.27 in 6.2 mi NNE 11.5 mph - N/A   Overcast
3:00 AM 37.4 °F 29.3 °F 32.0 °F 81% 30.27 in 6.2 mi NE 12.7 mph - N/A   Overcast
4:00 AM 35.6 °F 26.2 °F 32.0 °F 87% 30.27 in 6.2 mi NE 15.0 mph - N/A   Overcast
5:00 AM 37.4 °F 29.8 °F 32.0 °F 81% 30.27 in 6.2 mi NE 11.5 mph - N/A   Overcast
6:00 AM 37.4 °F 28.2 °F 32.0 °F 81% 30.27 in 6.2 mi NE 16.1 mph - N/A   Mostly Cloudy
7:00 AM 37.4 °F 29.3 °F 32.0 °F 81% 30.27 in 6.2 mi NE 12.7 mph - N/A   Mostly Cloudy
8:00 AM 37.4 °F 29.8 °F 32.0 °F 81% 30.30 in 6.2 mi ENE 11.5 mph - N/A   Mostly Cloudy
9:00 AM 37.4 °F 28.9 °F 32.0 °F 81% 30.30 in 6.2 mi NE 13.8 mph - N/A   Overcast
9:34 AM 37.4 °F 29.8 °F 32.0 °F 81% 30.30 in 6.2 mi NE 11.5 mph - N/A   Overcast
9:51 AM 37.4 °F 28.2 °F 32.0 °F 81% 30.30 in 6.2 mi NE 16.1 mph 27.6 mph N/A   Overcast
10:16 AM 37.4 °F 28.2 °F 32.0 °F 81% 30.30 in 6.2 mi NE 16.1 mph 26.5 mph N/A   Mostly Cloudy
10:34 AM 39.2 °F 31.2 °F 33.8 °F 81% 30.30 in 6.2 mi NE 13.8 mph - N/A   Overcast
11:00 AM 39.2 °F 32.0 °F 33.8 °F 81% 30.30 in 6.2 mi ENE 11.5 mph - N/A   Mostly Cloudy
12:00 PM 41.0 °F 32.8 °F 33.8 °F 76% 30.30 in 6.2 mi ENE 16.1 mph - N/A   Mostly Cloudy
12:03 PM 39.2 °F 29.3 °F 33.8 °F 81% 30.30 in 6.2 mi ENE 20.7 mph 29.9 mph N/A   Mostly Cloudy
1:00 PM 39.2 °F 29.8 °F 32.0 °F 75% 30.30 in 6.2 mi ENE 18.4 mph 28.8 mph N/A   Mostly Cloudy
2:00 PM 39.2 °F 32.0 °F 32.0 °F 75% 30.30 in 6.2 mi ENE 11.5 mph - N/A   Overcast
3:00 PM 41.0 °F 32.8 °F 32.0 °F 70% 30.30 in 6.2 mi ENE 16.1 mph 26.5 mph N/A   Mostly Cloudy
4:00 PM 41.0 °F 33.1 °F 32.0 °F 70% 30.30 in 6.2 mi ENE 15.0 mph - N/A   Mostly Cloudy
5:00 PM 39.2 °F 31.6 °F 32.0 °F 75% 30.30 in 6.2 mi ENE 12.7 mph 21.9 mph N/A   Scattered Clouds
7:00 PM 37.4 °F 29.8 °F 30.2 °F 75% 30.33 in 5.0 mi NE 11.5 mph - N/A   Partly Cloudy
8:00 PM 37.4 °F 34.9 °F 30.2 °F 75% 30.33 in 4.3 mi NNW 3.5 mph - N/A   Partly Cloudy
9:00 PM 35.6 °F 29.2 °F 30.2 °F 81% 30.33 in 4.3 mi NE 8.1 mph - N/A   Unknown
10:00 PM 35.6 °F 29.9 °F 30.2 °F 81% 30.33 in 5.0 mi NE 6.9 mph - N/A   Unknown
11:00 PM 33.8 °F 29.6 °F 28.4 °F 81% 30.33 in 4.3 mi NE 4.6 mph - N/A   Unknown